Change the Weather History Date:

Sunday, May 26, 2013

  Actual Average Record
Temperature  
Mean Temperature 68 °F -  
Max Temperature 75 °F 79 °F 91 °F (1998)
Min Temperature 60 °F 59 °F 50 °F (2001)
Cooling Degree Days 2    
Growing Degree Days 18 (Base 50)    
Moisture  
Dew Point 43 °F    
Average Humidity 43    
Maximum Humidity 54    
Minimum Humidity 33    
Precipitation  
Precipitation 0.00 in - - ()
Sea Level Pressure  
Sea Level Pressure 30.22 in    
Wind  
Wind Speed 6 mph (ENE)    
Max Wind Speed 9 mph    
Max Gust Speed -    
Visibility 10 miles    
Events Rain    
Averages and records for this station are not official NWS values.
T = Trace of Precipitation, MM = Missing Value Source: NWS Daily Summary

Daily Weather History Graph

Daily Weather History Graph

Search for Another Location

Airport or City:

Trip Planner

Search our weather history database for the weather conditions in past years. The results will help you decide how hot, cold, wet, or windy it might be!

Date:

Astronomy

May. 26, 2013 Rise Set
Actual Time 6:19 AM EDT 8:34 PM EDT
Civil Twilight 5:50 AM EDT 9:02 PM EDT
Nautical Twilight 5:15 AM EDT 9:38 PM EDT
Astronomical Twilight 4:37 AM EDT 10:16 PM EDT
Moon 10:21 PM EDT (5/26) 7:46 AM EDT (5/26)
Length of Visible Light 15h 12m
Length of Day
14h 14m
Waning Gibbous, 97% of the Moon is Illuminated
May 26
Waning Gibbous
May 31
Last Quarter
Jun 8
New
Jun 16
First Quarter
Jun 23
Full

Hourly Weather History & Observations

Time (EDT) Temp. Dew Point Humidity Pressure Visibility Wind Dir Wind Speed Gust Speed Precip Events Conditions
12:53 AM 63.0 °F 43.0 °F 48% 30.19 in 10.0 mi North 8.1 mph - N/A   Clear
1:53 AM 62.1 °F 39.0 °F 43% 30.17 in 10.0 mi Calm Calm - N/A   Mostly Cloudy
2:53 AM 63.0 °F 37.0 °F 38% 30.17 in 10.0 mi NE 8.1 mph - N/A   Partly Cloudy
3:53 AM 63.0 °F 37.9 °F 40% 30.17 in 10.0 mi NE 5.8 mph - N/A   Partly Cloudy
4:53 AM 61.0 °F 39.0 °F 44% 30.18 in 10.0 mi East 5.8 mph - N/A   Partly Cloudy
5:53 AM 60.1 °F 39.9 °F 47% 30.22 in 10.0 mi NE 9.2 mph - N/A   Partly Cloudy
6:53 AM 60.1 °F 39.9 °F 47% 30.25 in 10.0 mi ENE 6.9 mph - N/A   Clear
7:53 AM 60.1 °F 43.0 °F 53% 30.28 in 10.0 mi ENE 5.8 mph - N/A   Mostly Cloudy
8:53 AM 61.0 °F 44.1 °F 54% 30.29 in 10.0 mi NNE 9.2 mph - N/A   Scattered Clouds
9:53 AM 62.1 °F 41.0 °F 46% 30.29 in 10.0 mi ENE 6.9 mph - N/A   Scattered Clouds
10:53 AM 63.0 °F 41.0 °F 45% 30.30 in 10.0 mi East 5.8 mph - N/A   Overcast
11:53 AM 64.9 °F 43.0 °F 45% 30.29 in 10.0 mi ESE 5.8 mph - N/A   Partly Cloudy
12:53 PM 66.9 °F 43.0 °F 42% 30.29 in 10.0 mi Calm Calm - 0.00 in Rain Light Rain
1:53 PM 70.0 °F 41.0 °F 35% 30.26 in 10.0 mi South 3.5 mph - N/A   Clear
2:53 PM 72.0 °F 41.0 °F 33% 30.23 in 10.0 mi Variable 5.8 mph - N/A   Clear
3:53 PM 73.0 °F 44.1 °F 35% 30.21 in 10.0 mi Variable 3.5 mph - N/A   Clear
4:53 PM 73.9 °F 44.1 °F 34% 30.19 in 10.0 mi SW 8.1 mph - N/A   Clear
5:53 PM 75.0 °F 46.0 °F 36% 30.19 in 10.0 mi WSW 9.2 mph - N/A   Clear
6:53 PM 75.0 °F 48.0 °F 38% 30.18 in 10.0 mi SSW 5.8 mph - N/A   Clear
7:53 PM 73.0 °F 46.9 °F 39% 30.19 in 10.0 mi WSW 6.9 mph - N/A   Clear
8:53 PM 71.1 °F 48.0 °F 44% 30.19 in 10.0 mi Calm Calm - N/A   Clear
9:53 PM 69.1 °F 50.0 °F 51% 30.20 in 10.0 mi Calm Calm - N/A   Clear
10:53 PM 68.0 °F 50.0 °F 52% 30.22 in 10.0 mi Calm Calm - N/A   Clear
11:53 PM 66.9 °F 48.9 °F 52% 30.21 in 10.0 mi Calm Calm - N/A   Clear